Home > Time Zones > World Clock > Weather > Iran > Yazd > Past weeks

Flag for Iran Weather past 2 weeks in Yazd, Iran

Now
43 °F

Clear.


Feels Like: 43 °F
Forecast: 47 / 76 °F
Wind: 2 mph from South

Location: Yazd Airport

Current Time: Mar 28, 2015 at 6:51:08 AM

Latest Report: Mar 28, 2015 at 6:20 AM


Visibility: 10 mi

Pressure: 30.24 "Hg

Humidity: 100%

Dew point: 43 °F

Location of YazdLocation

Historic Weather in Yazd — Graph

°F

Yazd temperature yesterday

Maximum temperature yesterday: 59 °F (at 12:30 AM)
Minimum temperature yesterday: 46 °F (at 3:30 PM)
Average temperature yesterday: 51 °F

Past Weeks' High & Low Weather Summary

 TemperatureHumidityPressure
High79 °F (Mar 21, 1:30 PM)100% (Mar 19, 5:30 AM)30.24 "Hg (Mar 19, 5:30 AM)
Low39 °F (Mar 13, 4:30 AM)3% (Mar 23, 4:30 PM)29.83 "Hg (Mar 23, 1:30 AM)
Average61 °F38%30.09 "Hg
* Reported Mar 13 4:30 AM — Mar 28 5:20 AM, Yazd, Weather by CustomWeather, © 2015

Note: Actual official high and low records may vary slightly from our data, if they occured in-between our weather recording intervals... More about our weather records

Advertising

Yazd weather history for previous 24 hours

 ConditionsComfort  
Time TempWeatherWind HumidityBarometerVisibility
5:20 AM
Sat, Mar 28
43 °FQuite cool.2 mph100%30.24 "HgN/A
4:30 AM43 °FClear.No wind100%30.24 "Hg10 mi
3:20 AM45 °FPassing clouds.No wind100%30.24 "HgN/A
2:20 AM45 °FPassing clouds.No wind100%30.24 "HgN/A
1:20 AM46 °FPassing clouds.No wind100%30.24 "HgN/A
12:30 AM48 °FPassing clouds.5 mph100%30.24 "HgN/A
11:30 PM
Fri, Mar 27
48 °FLight rain. Passing clouds.5 mph100%30.24 "HgN/A
10:30 PM46 °FRain. Mostly cloudy.7 mph100%30.24 "HgN/A
9:30 PM48 °FLight rain. Mostly cloudy.5 mph100%30.24 "HgN/A
9:00 PM50 °FPassing clouds.5 mph82%30.24 "HgN/A
8:30 PM48 °FMostly cloudy.5 mph94%30.21 "HgN/A
8:00 PM48 °FBroken clouds.2 mph94%30.21 "HgN/A
7:30 PM50 °FBroken clouds.2 mph82%30.21 "HgN/A
7:00 PM50 °FPartly sunny.5 mph82%30.21 "HgN/A
6:30 PM50 °FPartly sunny.5 mph76%30.21 "HgN/A
6:00 PM50 °FScattered clouds.7 mph82%30.21 "HgN/A
5:30 PM50 °FPartly sunny.9 mph88%30.21 "HgN/A
5:00 PM48 °FPartly sunny.9 mph94%30.21 "HgN/A
4:30 PM46 °FRain. Fog.14 mph87%30.24 "Hg3 mi
4:00 PM46 °FRain. Fog.16 mph93%30.24 "Hg2 mi
3:30 PM46 °FLight rain. Mostly cloudy.16 mph93%30.21 "Hg4 mi
2:30 PM48 °FLight rain. Mostly cloudy.14 mph87%30.21 "Hg5 mi
1:30 PM48 °FMostly cloudy.14 mph87%30.21 "Hg4 mi
1:00 PM48 °FLight rain. Mostly cloudy.18 mph94%30.21 "Hg4 mi
12:30 PM50 °FFog.18 mph88%30.24 "Hg3 mi
12:00 PM50 °FMore clouds than sun.20 mph82%30.24 "HgN/A
11:30 AM54 °FMostly cloudy.16 mph72%30.24 "HgN/A
11:00 AM54 °FOvercast.14 mph72%30.24 "HgN/A
10:30 AM54 °FOvercast.16 mph72%30.24 "HgN/A
10:00 AM54 °FPartly sunny.14 mph72%30.24 "HgN/A
9:30 AM54 °FPartly sunny.12 mph72%30.21 "HgN/A
9:00 AM54 °FPartly sunny.12 mph72%30.21 "HgN/A
8:30 AM52 °FPartly sunny.9 mph77%30.21 "HgN/A
7:30 AM50 °FPassing clouds.7 mph82%30.18 "HgN/A
6:30 AM50 °FPassing clouds.9 mph82%30.15 "HgN/A
Weather by CustomWeather, © 2015

See weather overviewHow to use our weather pages